Simultaneous Nadir Overpasses (SNOs) Predictions

Prediction of SNOs between METOP-B and NOAA-19 Satellite Orbit:

Table of predicted SNOs for the next 14.0 days since TLE Epoch: 9/3/2022
Index Date (METOP-B) Time (METOP-B) Lat,Lon (METOP-B) SZA (METOP-B ) Date (NOAA-19) Time (NOAA-19) Lat,Lon (NOAA-19) SZA (NOAA-19 ) Distance(km) Time Diff (sec)
1 09/12/2022 20:14:43 80.89, -89.77 78.57 09/12/2022 20:13:41 80.89, -89.90 78.53 2.17 62
2 09/12/2022 21:05:24 -80.89, 77.51 101.43 09/12/2022 21:04:44 -80.89, 77.33 101.46 3.07 40
3 09/12/2022 21:56:05 80.88,-115.28 78.58 09/12/2022 21:55:40 80.88,-115.11 78.59 3.15 25
4 09/12/2022 22:46:46 -80.88, 52.00 101.42 09/12/2022 22:46:43 -80.88, 52.12 101.41 2.18 3
5 09/12/2022 23:37:27 80.87,-140.79 78.58 09/12/2022 23:37:40 80.89,-140.69 78.61 2.32 13
6 09/13/2022 00:28:07 -80.89, 26.85 101.37 09/13/2022 00:28:42 -80.88, 26.91 101.36 1.29 35
7 09/13/2022 01:18:48 80.88,-165.94 78.63 09/13/2022 01:19:39 80.88,-165.90 78.66 0.84 51



Historial Predications of SNOs between METOP-B and NOAA-19
